Date,TemperatureHighF,TemperatureAvgF,TemperatureLowF,DewpointHighF,DewpointAvgF,DewpointLowF,HumidityHigh,HumidityAvg,HumidityLow,PressureMaxIn,PressureMinIn,WindSpeedMaxMPH,WindSpeedAvgMPH,GustSpeedMaxMPH,PrecipitationSumIn
2013-9-16,71.2,63.6,56.1,58.6,52.6,44.9,84,68,55,29.99,29.87,3,1,7,0.01
2013-9-17,67.6,56.5,49.8,46.4,40.4,34.3,88,58,33,30.17,30.15,3,1,8,0.00
2013-9-18,72.2,56.8,47.8,55.6,49.6,41.7,94,79,37,30.16,29.98,9,3,9,0.00
2013-9-19,81.1,65.7,54.5,58.6,54.9,50.5,94,72,39,29.99,29.87,11,5,11,0.00
2013-9-20,81.5,66.6,55.0,66.9,58.0,52.8,99,78,41,29.91,29.84,13,4,13,0.00
2013-9-21,77.2,67.2,59.0,67.1,62.2,38.8,99,85,65,30.16,29.65,17,6,17,0.00
2013-9-25,76.1,62.1,56.7,53.6,50.7,48.8,78,68,44,29.85,29.75,7,2,11,0.00
2013-9-26,71.8,60.5,52.5,57.2,50.0,46.1,92,70,44,29.98,29.84,5,2,9,0.00
2013-9-27,53.2,52.5,51.8,51.6,51.1,50.7,96,95,94,30.13,30.12,1,0,2,0.00
2013-9-28,79.2,61.6,50.5,61.4,53.8,50.3,100,79,44,30.19,30.11,4,1,7,0.00
2013-9-29,76.6,60.6,50.4,62.7,52.9,41.0,100,80,33,30.14,29.97,5,2,8,0.01
2013-9-30,75.9,62.1,54.0,59.9,55.0,47.9,100,81,43,29.98,29.83,4,2,7,0.00
2013-10-1,83.3,65.0,50.2,63.4,54.7,48.8,100,75,32,29.83,29.73,4,1,8,0.00
2013-10-2,85.1,70.7,59.4,62.8,60.2,56.0,93,72,45,29.85,29.72,9,4,12,0.00
2013-10-3,83.3,68.2,58.1,61.1,55.2,45.6,95,67,29,29.96,29.84,9,3,12,0.00
2013-10-4,77.7,62.8,56.7,64.8,58.0,55.7,99,85,57,29.95,29.89,5,1,8,0.00
2013-10-5,77.2,63.7,58.5,65.6,60.5,57.6,100,90,62,30.00,29.91,3,1,5,0.12
2013-10-6,64.0,60.7,57.9,62.0,58.7,56.5,100,93,83,30.07,29.97,4,1,8,0.07
2013-10-7,78.6,70.2,61.0,72.4,68.0,61.0,100,93,77,29.98,29.72,16,8,24,0.07
2013-10-8,75.6,62.4,51.1,63.9,48.7,41.8,94,64,33,30.22,29.77,8,3,15,0.00
2013-10-9,70.5,56.6,48.0,53.2,47.9,46.0,96,75,46,30.30,30.21,6,2,10,0.00
2013-10-10,72.9,58.5,49.6,58.9,54.1,48.2,97,86,60,30.21,30.01,5,2,9,0.00
2013-10-11,76.3,62.0,52.2,61.8,56.1,44.9,100,82,58,30.01,29.93,5,2,10,0.00
2013-10-12,78.3,61.5,52.7,62.6,55.0,50.9,97,81,52,30.15,29.52,6,3,12,13.90
2013-10-13,80.6,56.9,46.4,63.5,49.6,45.3,97,79,46,29.94,29.42,7,2,8,0.00
2013-10-14,69.8,53.7,43.0,58.4,48.4,42.8,100,84,52,29.94,29.80,5,1,8,0.00
2013-10-15,75.0,59.3,49.5,64.0,50.8,41.9,100,78,33,29.81,29.70,6,2,8,0.00
2013-10-16,68.0,57.5,49.8,60.0,55.2,49.6,100,93,75,29.70,29.46,4,2,7,0.00
2013-10-17,73.6,62.7,55.6,63.8,60.2,55.3,100,92,70,29.46,29.28,8,2,11,0.00
2013-10-18,73.6,64.8,54.1,64.4,54.3,46.1,100,72,41,29.47,29.18,0,0,0,0.01
2013-10-19,70.3,58.6,48.2,57.2,47.2,42.2,95,67,43,29.53,29.29,0,0,0,0.01
2013-10-20,59.7,59.3,58.6,58.2,57.0,55.3,96,92,87,29.29,29.24,0,0,0,0.00
2013-10-21,70.3,61.6,45.9,49.2,44.6,35.3,85,56,29,30.12,30.00,0,0,0,0.00
2013-10-22,71.2,60.7,52.3,57.8,53.1,48.5,97,77,50,30.00,29.70,0,0,0,0.00
2013-10-23,54.0,47.8,44.4,42.9,39.6,35.1,91,75,51,29.67,29.58,0,0,0,0.01
2013-10-24,56.7,49.2,42.3,39.6,32.5,20.6,82,56,27,29.90,29.63,0,0,0,0.01
2013-10-25,57.6,47.2,40.1,38.0,32.0,25.9,76,57,34,30.17,29.89,0,0,0,0.00
2013-10-26,58.3,49.7,38.8,43.3,37.0,26.2,91,64,32,30.17,29.88,0,0,0,0.00
2013-10-27,62.6,52.9,45.1,43.0,36.3,31.3,85,55,34,30.07,29.81,0,0,0,0.01
2013-10-28,64.6,50.3,37.9,43.3,35.5,30.4,100,60,31,30.33,30.07,0,0,0,0.00
2013-10-29,78.3,44.5,0.0,59.2,30.2,21.8,88,59,28,30.41,29.43,4,0,4,13.84
2013-10-30,59.0,48.5,40.5,47.5,43.3,37.2,95,83,60,29.93,29.75,0,0,0,0.00
2013-10-31,64.6,56.8,46.2,63.3,54.5,44.6,100,92,83,29.80,29.40,0,0,0,0.02
2013-11-1,69.3,64.0,60.6,66.1,60.8,55.6,96,89,79,29.40,29.09,0,0,0,0.04
2013-11-2,66.7,58.8,54.5,55.9,51.9,48.3,89,78,61,29.28,29.15,0,0,0,0.00
2013-11-3,54.5,45.3,34.9,48.6,36.4,15.5,86,72,42,29.94,29.27,0,0,0,0.00
2013-11-4,49.1,37.9,31.5,28.5,22.6,16.4,75,55,35,30.25,29.94,0,0,0,0.00
2013-11-5,78.3,41.5,31.5,59.2,31.8,25.5,94,70,43,30.25,29.21,4,0,5,13.61
2013-11-6,59.4,51.9,42.4,54.4,45.6,35.1,97,80,58,29.85,29.41,12,4,17,0.00
2013-11-7,62.1,55.5,43.7,61.2,53.2,32.7,100,92,66,29.41,29.01,15,8,21,0.37
2013-11-8,51.1,42.8,37.2,35.7,29.3,20.9,84,60,41,29.45,29.16,14,8,22,0.00
2013-11-9,47.1,41.2,34.5,36.6,25.8,19.8,68,55,35,29.55,29.38,9,5,14,0.00
2013-11-10,60.3,50.4,43.7,42.8,38.5,33.8,77,64,40,29.39,29.06,15,8,24,0.00
2013-11-11,54.3,47.1,41.2,41.8,30.6,22.3,70,53,29,29.45,29.23,16,9,23,0.00
2013-11-12,52.0,38.6,30.2,38.3,26.8,14.3,95,63,46,29.52,29.21,16,7,23,0.38
2013-11-13,39.9,32.5,27.1,16.6,12.5,2.6,60,44,25,29.61,29.51,11,7,19,0.00
2013-11-14,52.9,43.2,32.9,32.3,22.1,13.4,60,44,21,29.55,29.40,14,8,21,0.00
2013-11-15,59.0,49.3,43.0,45.2,35.4,20.2,93,61,23,29.57,29.48,14,7,18,0.00
2013-11-16,62.6,50.6,44.2,46.4,39.2,27.2,100,68,34,29.66,29.54,8,4,11,0.00
2013-11-17,61.0,51.9,41.7,59.1,50.2,41.5,100,94,69,29.65,29.18,10,4,15,0.06
2013-11-18,64.9,58.7,50.2,62.4,50.6,33.2,100,77,48,29.18,28.90,25,10,37,0.32
2013-11-19,50.2,42.5,32.9,35.5,23.8,16.2,57,47,36,29.61,29.01,13,8,21,0.00
2013-11-20,45.0,34.5,28.0,16.8,11.7,2.4,54,40,20,29.95,29.60,8,4,12,0.00
2013-11-21,49.3,38.0,26.4,36.6,22.2,10.5,76,54,23,29.96,29.73,7,2,9,0.00
2013-11-22,52.2,48.4,43.7,52.2,46.2,36.5,100,92,76,29.73,29.16,11,3,13,0.09
2013-11-23,49.8,42.9,32.0,49.1,26.3,9.2,100,55,22,29.23,29.13,16,9,27,0.00
2013-11-24,31.8,25.5,22.6,12.9,-1.3,-10.7,50,31,18,29.55,29.15,21,15,31,0.00
2013-11-25,35.8,27.5,19.2,25.0,0.9,-11.5,66,33,18,29.71,29.55,14,8,20,0.00
2013-11-26,45.9,40.1,35.6,45.1,28.3,15.5,100,65,39,29.67,29.33,17,6,21,0.13
2013-11-27,61.0,52.4,38.3,61.0,51.5,32.7,100,97,80,29.33,28.53,24,11,34,1.74
2013-11-28,38.1,32.4,27.0,33.4,13.7,0.1,83,47,24,29.77,28.84,19,10,25,0.00
2013-11-29,37.6,30.7,24.4,14.1,8.1,-5.3,52,38,24,30.06,29.76,6,4,11,0.00
2013-11-30,37.0,28.6,19.2,26.6,13.5,1.2,73,53,36,30.09,29.77,7,3,9,0.00
2013-12-1,49.6,43.5,34.7,48.8,39.3,26.2,100,86,65,29.77,29.33,11,5,17,0.06
2013-12-2,42.4,38.0,36.0,40.8,37.2,34.2,100,97,90,29.33,29.23,4,2,7,0.01
2013-12-3,51.3,40.3,35.1,39.1,34.9,31.0,100,83,50,29.29,29.16,7,3,10,0.00
2013-12-4,49.6,39.3,32.4,37.4,31.2,27.2,90,73,51,29.53,29.28,6,2,8,0.00
2013-12-5,54.9,48.7,38.7,54.0,46.7,36.2,100,93,85,29.52,29.27,20,4,21,0.00
2013-12-6,55.4,49.6,37.9,55.1,48.7,36.9,100,97,90,29.45,29.21,19,6,21,0.24
2013-12-7,42.3,36.3,32.2,36.9,27.5,18.4,97,72,50,29.79,29.39,12,5,15,0.14
2013-12-8,32.5,30.5,28.0,19.9,14.4,10.9,64,51,42,29.92,29.78,7,3,11,0.00
2013-12-9,41.0,35.7,28.0,40.6,33.4,16.0,100,92,55,29.81,29.22,9,4,14,0.18
2013-12-10,36.1,33.0,27.7,32.7,28.5,15.6,91,84,57,29.36,29.11,7,2,10,0.02
2013-12-11,32.7,28.9,25.3,18.4,15.0,11.5,69,56,47,29.59,29.36,12,4,21,0.05
2013-12-12,80.6,27.0,21.6,63.5,4.7,-8.1,86,40,21,29.82,29.47,12,7,21,11.37
2013-12-13,80.4,31.8,22.3,61.2,11.6,3.8,54,43,31,30.22,29.75,17,8,28,0.00
2013-12-14,31.1,20.3,14.9,28.5,5.4,-10.7,90,54,28,30.44,29.93,9,5,13,0.00
2013-12-15,37.6,32.6,27.7,36.5,27.2,18.8,96,81,61,29.93,29.23,9,2,18,0.58
2013-12-16,30.9,27.8,22.5,20.8,7.8,-2.3,68,43,27,30.09,29.63,11,4,15,0.00
2013-12-17,26.4,21.2,15.8,21.2,8.9,0.5,81,60,43,30.13,29.77,8,4,12,0.00
2013-12-18,36.1,28.3,19.9,19.9,16.4,13.6,79,62,41,29.99,29.69,12,7,17,0.02
2013-12-19,46.0,36.4,27.9,28.9,22.6,15.4,65,57,43,30.01,29.85,16,8,26,0.00
2013-12-20,52.3,44.4,36.3,42.1,34.2,24.2,83,68,56,30.00,29.83,19,8,24,0.00
2013-12-21,56.5,51.1,46.9,50.1,45.7,42.1,91,82,68,29.88,29.78,19,12,26,0.00
2013-12-22,59.4,55.0,48.4,55.4,52.2,42.8,96,90,73,29.86,29.70,22,13,30,0.00
2013-12-23,51.3,40.6,35.2,48.1,38.8,32.9,97,93,82,29.95,29.79,8,3,14,0.33
2013-12-24,40.3,34.6,28.9,39.2,22.4,12.6,96,62,39,30.08,29.89,9,4,16,0.02
2013-12-25,28.8,22.0,18.7,14.3,0.0,-6.5,56,38,24,30.42,30.08,14,6,21,0.00
2013-12-26,39.9,31.1,22.5,37.2,23.8,9.2,91,74,56,30.35,29.94,11,4,16,0.09
2013-12-27,38.7,32.2,28.8,21.1,17.6,13.1,72,55,38,30.16,30.08,10,3,14,0.00
2013-12-28,50.5,39.8,31.1,29.7,24.4,18.3,71,55,35,30.12,29.89,20,8,28,0.01
2013-12-29,46.6,42.5,37.9,41.9,35.1,28.5,94,76,60,29.92,29.19,14,6,21,0.78
2013-12-30,41.9,34.4,22.1,36.6,22.7,5.1,93,65,33,30.02,29.38,13,6,19,0.00
2013-12-31,29.1,23.1,16.5,12.9,4.5,-3.9,56,45,30,30.07,29.90,11,4,16,0.00
2014-1-1,31.3,26.3,21.7,9.2,2.0,-3.2,50,35,25,30.25,30.07,12,6,19,0.00
2014-1-2,29.5,23.9,9.3,25.4,16.9,0.6,85,74,50,30.20,29.58,10,6,17,0.00